Inquirer Daily News

Weather

Get conditions and forecasts for any City, State, ZIP code or Country:  
Trenton, NJ
on Wednesday, December 26, 2012

Wednesday
Previous Day Next Day
Daily Summary
 ActualAverageRecord
Temperature
Mean Temperature °F 32°F  
Max Temperature 40°F 40°F 68°F (1889)
Min Temperature 27°F 25°F 0°F (1983)
Degree Days
Heating Degree Days 31 33  
Month to date heating degree days 591 754  
Since 1 July heating degree days 1598 1730  
Cooling Degree Days 0 0  
Month to date cooling degree days 0 0  
Year to date cooling degree days 1234 965  
Moisture
Dew Point 29°F   
Average Humidity 79    
Maximum Humidity 92    
Minimum Humidity 66    
Precipitation
Precipitation 1.08 in 0.09 in 1.40 in (2009)
Month to date precipitation 3.96 3.28  
Year to date precipitation 37.19 46.02  
Wind
Wind Speed 15 mph   
Max Wind Speed 36 mph   
Max Gust Speed 46 mph   
Visibility 7 miles   
Events Rain , Snow   

Key: T is trace of precipitation, MM is missing value
Source: NWS Daily Summary
Time(EST)TemperatureDew PointHumidity Pressure Visibility Wind DirectionWind SpeedGust SpeedPrecipitationEvents Conditions
12:53 AM 30.0°F 23.0°F 75% 30.26 in 10.0 miles NNW 3.5 mph - N/A   Clear
1:53 AM 30.0°F 23.0°F 75% 30.25 in 10.0 miles NNE 6.9 mph - N/A   Clear
2:53 AM 28.9°F 23.0°F 78% 30.26 in 10.0 miles NNE 3.5 mph - N/A   Clear
3:53 AM 28.0°F 21.9°F 78% 30.23 in 10.0 miles NNE 3.5 mph - N/A   Clear
4:53 AM 28.0°F 21.9°F 78% 30.24 in 10.0 miles NNE 3.5 mph - N/A   Clear
5:53 AM 28.0°F 21.9°F 78% 30.21 in 10.0 miles East 6.9 mph - N/A   Clear
6:53 AM 28.0°F 21.9°F 78% 30.22 in 10.0 miles ENE 10.4 mph - N/A   Clear
7:53 AM 28.0°F 21.9°F 78% 30.20 in 10.0 miles ENE 10.4 mph - N/A   Clear
8:53 AM 28.9°F 21.9°F 75% 30.20 in 10.0 miles ENE 9.2 mph - N/A   Clear
9:53 AM 28.9°F 21.9°F 75% 30.19 in 10.0 miles ENE 8.1 mph - N/A   Overcast
10:53 AM 30.9°F 21.9°F 69% 30.16 in 10.0 miles East 11.5 mph - N/A   Overcast
11:40 AM 30.2°F 23.0°F 75% 30.12 in 10.0 miles ENE 10.4 mph - N/A   Overcast
11:53 AM 30.9°F 23.0°F 72% 30.10 in 10.0 miles ENE 12.7 mph - N/A   Overcast
12:53 PM 32.0°F 23.0°F 69% 30.04 in 10.0 miles East 12.7 mph - N/A   Overcast
1:53 PM 32.0°F 26.1°F 79% 29.99 in 8.0 miles East 13.8 mph - 0.00 in Snow Light Snow
2:09 PM 32.0°F 26.6°F 80% 29.98 in 6.0 miles ENE 15.0 mph - 0.00 in   Overcast
2:20 PM 32.0°F 28.4°F 87% 29.96 in 4.0 miles ENE 17.3 mph - 0.01 in Rain Light Freezing Rain
2:34 PM 33.8°F 28.4°F 81% 29.94 in 3.0 miles ENE 18.4 mph 24.2 mph 0.04 in Rain Light Freezing Rain
2:41 PM 33.8°F 28.4°F 81% 29.93 in 2.5 miles ENE 17.3 mph 26.5 mph 0.05 in Rain Light Freezing Rain
2:48 PM 33.8°F 30.2°F 87% 29.92 in 4.0 miles ENE 17.3 mph 24.2 mph 0.06 in Rain Light Freezing Rain
2:49 PM 33.8°F 30.2°F 87% 29.92 in 4.0 miles ENE 16.1 mph 24.2 mph 0.06 in Rain Light Freezing Rain
2:51 PM 33.8°F 30.2°F 87% 29.91 in 4.0 miles ENE 18.4 mph 24.2 mph 0.06 in Rain Light Freezing Rain
2:53 PM 33.1°F 30.0°F 89% 29.90 in 4.0 miles East 20.7 mph 25.3 mph 0.06 in Rain Light Freezing Rain
2:55 PM 33.8°F 30.2°F 87% 29.91 in 4.0 miles ENE 18.4 mph 25.3 mph 0.00 in Rain Light Freezing Rain
3:04 PM 33.8°F 30.2°F 87% 29.89 in 4.0 miles East 19.6 mph 29.9 mph 0.01 in Rain Light Freezing Rain
3:15 PM 33.8°F 30.2°F 87% 29.89 in 5.0 miles East 19.6 mph 27.6 mph 0.02 in Rain Light Rain
3:53 PM 34.0°F 32.0°F 92% 29.85 in 4.0 miles East 18.4 mph 29.9 mph 0.04 in Rain Light Rain
4:53 PM 35.1°F 33.1°F 92% 29.77 in 8.0 miles East 19.6 mph 29.9 mph 0.03 in Rain Light Rain
5:53 PM 37.9°F 35.1°F 89% 29.74 in 5.0 miles East 18.4 mph 33.4 mph 0.05 in Rain Rain
6:53 PM 39.0°F 36.0°F 89% 29.66 in 7.0 miles East 25.3 mph 40.3 mph 0.08 in Rain Rain
7:53 PM 37.9°F 36.0°F 93% 29.63 in 4.0 miles East 24.2 mph 34.5 mph 0.19 in Rain Heavy Rain
8:50 PM 37.4°F 35.6°F 93% 29.57 in 4.0 miles East 35.7 mph 46.0 mph 0.27 in Rain Rain
8:53 PM 37.9°F 35.1°F 89% 29.55 in 5.0 miles East 28.8 mph 46.0 mph 0.28 in Rain Rain
9:53 PM 37.9°F 36.0°F 93% 29.51 in 4.0 miles East 25.3 mph 35.7 mph 0.10 in Rain Rain
10:53 PM 39.0°F 37.0°F 93% 29.47 in 5.0 miles ENE 20.7 mph 31.1 mph 0.09 in Rain Rain
11:31 PM 39.2°F 37.4°F 93% 29.45 in 4.0 miles ENE 24.2 mph 34.5 mph 0.11 in Rain Rain
11:38 PM 39.2°F 37.4°F 93% 29.45 in 6.0 miles ENE 23.0 mph 34.5 mph 0.12 in Rain Light Rain
11:45 PM 37.4°F 35.6°F 93% 29.43 in 4.0 miles ENE 25.3 mph 32.2 mph 0.14 in Rain Heavy Rain
11:53 PM 39.0°F 36.0°F 89% 29.38 in 4.0 miles ENE 26.5 mph 35.7 mph 0.15 in Rain Rain
Astronomy
Sunrise:07:20 AM (EST) Moon Rise:03:31 PM (EST)12/26
Sunset:04:39 PM (EST) Moon Set:05:42 AM (EST)12/26
Moon Phase
Dec. 26 Dec. 28 Jan. 04 Jan. 11 Jan. 18

Copyright © 2014 The Weather Underground, Inc.